Skip Navigation Links
NOAA logo - Click to go to the NOAA homepage
NOAA's National Weather Service
Alaska Aviation Weather Unit
  NWS logo - Click to go to the NWS homepage
Left Navbar Graphic     22 AKDT = 06 GMT

   
NOAA is celebrating 200 years of science, service, and stewardship. Visit the NOAA 200th celebration Web site to learn more.
USA.gov is the U.S. Government's official Web portal to all Federal, state and local government Web resources and services.
Facebook
NWS on Facebook

Important Change Regarding the AAWU Web Presence

 

Over the last several months, the AAWU has been working to navigate its webpages to a nationally supported server. Security, as well as other needs, have necessitated the change.  In the process, we have made an effort to enhance the functionality of our website, as well as some of our products. As of June 20, 2017, aawu.arh.noaa.gov will be discontinued. The new AAWU web address is weather.gov/aawu. It is now live and will run in-parallel with the old site until it is discontinued. Please send any feedback or questions regarding the new webpages to nws.ar.aawu.webauthors@noaa.gov.  Thank you for your patience during this time of transition.
AAWU Home :: Display TAF Add Bookmark
METAR PAWI 280053Z AUTO 08009KT 10SM CLR 04/02 A3002 RMK AO2 SLP167
     T00440017 TSNO=

METAR PAWI 280153Z AUTO 09012KT 10SM BKN100 04/02 A3002 RMK AO2 SLP165
     T00440017 TSNO=

METAR PAWI 280253Z AUTO 09009KT 10SM CLR 04/02 A3001 RMK AO2 SLP164
     T00440017 58002 TSNO=

METAR PAWI 280353Z AUTO 07012KT 10SM SCT065 04/02 A3001 RMK AO2 SLP162
     T00390017 TSNO=

METAR PAWI 280453Z AUTO 08012KT 10SM CLR 03/01 A3001 RMK AO2 SLP162
 T00330011 TSNO=

METAR PAWI 280553Z AUTO 09012KT 10SM CLR 03/01 A3001 RMK AO2 SLP163
     T00280011 10044 20028 55001 TSNO=


NOAA's National Weather Service
Alaska Aviation Weather Unit
6930 Sand Lake Road
Anchorage, AK 99502-1845
Disclaimer
Credits
Glossary
Privacy Policy
About Us
Career Opportunities
Contact AAWU Internet Services Site last modified: April, 17th 2012